{"data":{"norad_id":54867,"epoch":"2026-05-25T03:58:48.366048Z","epoch_age_seconds":56566,"freshness":"FRESH","line1":"1 54867U 22177AZ  26145.16583757  .00000088  00000+0  12710-4 0  9999","line2":"2 54867  43.0033  49.9360 0000916 253.8166 106.2585 15.27575748188783","mean_motion":15.27575748,"eccentricity":9.16e-5,"inclination_deg":43.0033,"raan_deg":49.936,"arg_perigee_deg":253.8166,"mean_anomaly_deg":106.2585,"bstar":1.271e-5,"rev_number":18878,"period_min":94.267011104709,"perigee_km":482.43334227418,"apogee_km":483.69031389949,"semimajor_km":6861.1988280868,"source":"CELESTRAK","updated_at":"2026-05-25T13:38:17.729152Z"}}